West Tisbury, MA

7:03 PM EST on February 08, 2016 (GMT -0500)
Martha's Vineyard

Weather History for KMVY - March, 2014

Change the Weather History Date:

Wednesday, March 26, 2014

  Actual Average Record
Temperature  
Mean Temperature 30 °F -  
Max Temperature 36 °F 48 °F 68 °F (1987)
Min Temperature 26 °F 32 °F 7 °F (1960)
Degree Days  
Heating Degree Days 34    
Moisture  
Dew Point 19 °F    
Average Humidity 67    
Maximum Humidity 89    
Minimum Humidity 29    
Precipitation  
Precipitation 0.00 in - - ()
Sea Level Pressure  
Sea Level Pressure 29.59 in    
Wind  
Wind Speed 26 mph (North)    
Max Wind Speed 40 mph    
Max Gust Speed 61 mph    
Visibility 4 miles    
Events Fog , Snow    
Averages and records for this station are not official NWS values.
T = Trace of Precipitation, MM = Missing Value Source: NWS Daily Summary

Daily Weather History Graph

Daily Weather History Graph

Search for Another Location

Airport or City:

Trip Planner

Search our weather history database for the weather conditions in past years. The results will help you decide how hot, cold, wet, or windy it might be!

Date:

Astronomy

Mar. 26, 2014 Rise Set
Actual Time 6:35 AM EDT 7:01 PM EDT
Civil Twilight 6:08 AM EDT 7:28 PM EDT
Nautical Twilight 5:35 AM EDT 8:01 PM EDT
Astronomical Twilight 5:02 AM EDT 8:35 PM EDT
Moon 3:44 AM EDT (3/26) 2:33 PM EDT (3/26)
Length of Visible Light 13h 20m
Length of Day
12h 25m
Waning Crescent, 22% of the Moon is Illuminated
Mar 26
Waning Crescent
Mar 30
New
Apr 7
First Quarter
Apr 15
Full
Apr 22
Last Quarter

Hourly Weather History & Observations

Time (EDT) Temp. Windchill Dew Point Humidity Pressure Visibility Wind Dir Wind Speed Gust Speed Precip Events Conditions
12:53 AM 34.0 °F 23.0 °F 21.0 °F 59% 29.79 in 10.0 mi NE 18.4 mph 27.6 mph N/A   Overcast
1:53 AM 34.0 °F 22.4 °F 24.1 °F 67% 29.75 in 5.0 mi NE 20.7 mph 28.8 mph 0.00 in Snow Light Snow
2:10 AM 33.1 °F 19.8 °F 25.0 °F 72% 29.72 in 2.0 mi NE 26.5 mph 34.5 mph 0.00 in Snow Light Snow
2:53 AM 32.0 °F 19.8 °F 27.0 °F 82% 29.69 in 2.0 mi NE 20.7 mph 31.1 mph 0.00 in Snow Light Snow
3:13 AM 32.0 °F 19.5 °F 25.0 °F 75% 29.67 in 3.0 mi NNE 21.9 mph 33.4 mph 0.00 in Snow Light Snow
3:25 AM 32.0 °F 20.5 °F 26.1 °F 79% 29.66 in 2.5 mi NNE 18.4 mph 32.2 mph 0.00 in Snow Light Snow
3:29 AM 32.0 °F 20.5 °F 26.1 °F 79% 29.65 in 4.0 mi NNE 18.4 mph 28.8 mph 0.00 in Snow Light Snow
3:49 AM 32.0 °F 20.5 °F 26.6 °F 80% 29.62 in 1.8 mi NNE 18.4 mph 35.7 mph 0.00 in Snow Light Snow
3:53 AM 32.0 °F 18.6 °F 27.0 °F 82% 29.61 in 1.5 mi NNE 25.3 mph 35.7 mph 0.00 in Snow Light Snow
4:13 AM 30.9 °F 17.5 °F 26.1 °F 82% 29.58 in 2.0 mi NNE 24.2 mph 36.8 mph 0.00 in Snow Light Snow
4:27 AM 30.9 °F 16.4 °F 26.1 °F 82% 29.57 in 1.5 mi NNE 28.8 mph 46.0 mph 0.00 in Snow Light Snow
4:46 AM 30.0 °F 16.6 °F 25.0 °F 82% 29.57 in 1.0 mi NNE 23.0 mph 40.3 mph 0.00 in Snow Light Snow
4:53 AM 30.0 °F 15.2 °F 25.0 °F 82% 29.56 in 0.8 mi NNE 28.8 mph 41.4 mph 0.00 in Snow Light Snow
5:02 AM 30.0 °F 16.3 °F 26.1 °F 85% 29.56 in 0.5 mi NNE 24.2 mph 35.7 mph 0.00 in Fog , Snow Snow
5:53 AM 30.0 °F 15.2 °F 26.1 °F 85% 29.52 in 0.5 mi North 28.8 mph 39.1 mph 0.00 in Fog , Snow Snow
6:53 AM 28.9 °F 14.5 °F 25.0 °F 85% 29.48 in 0.5 mi North 25.3 mph 40.3 mph 0.00 in Fog , Snow Snow
7:25 AM 28.9 °F 13.7 °F 25.0 °F 85% 29.47 in 0.2 mi North 28.8 mph 43.7 mph 0.00 in Fog Light Freezing Fog
7:53 AM 28.9 °F 13.2 °F 26.1 °F 89% 29.46 in 0.2 mi North 31.1 mph 40.3 mph 0.00 in Fog Light Freezing Fog
8:53 AM 28.0 °F 12.0 °F 24.1 °F 85% 29.47 in 0.2 mi North 31.1 mph 58.7 mph N/A Fog Light Freezing Fog
9:53 AM 27.0 °F 10.3 °F 23.0 °F 85% 29.45 in 0.2 mi North 32.2 mph 55.2 mph N/A Fog Light Freezing Fog
10:26 AM 26.1 °F 7.5 °F 23.0 °F 88% 29.45 in 0.2 mi North 40.3 mph 61.0 mph N/A Fog Light Freezing Fog
10:46 AM 26.1 °F 8.1 °F 21.9 °F 84% 29.45 in 0.2 mi NNW 36.8 mph 50.6 mph N/A Fog Light Freezing Fog
10:53 AM 26.1 °F 8.8 °F 21.9 °F 84% 29.46 in 0.2 mi NNW 33.4 mph 49.5 mph N/A Fog Light Freezing Fog
10:55 AM 26.1 °F 9.1 °F 21.9 °F 84% 29.45 in 0.5 mi North 32.2 mph 49.5 mph N/A Fog Light Freezing Fog
11:09 AM 26.1 °F 8.1 °F 21.9 °F 84% 29.46 in 0.5 mi NNW 36.8 mph 52.9 mph N/A Fog Light Freezing Fog
11:31 AM 26.1 °F 7.9 °F 21.0 °F 81% 29.47 in 0.8 mi NNW 38.0 mph 51.8 mph N/A   Haze
11:53 AM 27.0 °F 10.5 °F 21.9 °F 81% 29.48 in 1.0 mi NNW 31.1 mph 39.1 mph N/A   Haze
12:20 PM 28.9 °F 13.7 °F 19.0 °F 67% 29.47 in 1.5 mi NNW 28.8 mph 42.6 mph N/A   Haze
12:40 PM 30.0 °F 14.2 °F 19.0 °F 64% 29.46 in 0.5 mi North 33.4 mph 54.1 mph N/A   Haze
12:50 PM 30.2 °F 14.9 °F 19.4 °F 64% 29.47 in 1.2 mi NNW 31.1 mph 46.0 mph N/A   Haze
12:53 PM 30.0 °F 14.9 °F 19.0 °F 64% 29.47 in 1.2 mi NNW 29.9 mph 46.0 mph N/A   Haze
1:53 PM 32.0 °F 16.5 °F 18.0 °F 56% 29.49 in 1.5 mi NNW 35.7 mph 52.9 mph N/A   Haze
2:02 PM 30.9 °F 15.3 °F 19.0 °F 61% 29.49 in 7.0 mi NNW 34.5 mph 57.5 mph 0.00 in Snow Light Snow
2:53 PM 33.1 °F 18.4 °F 17.1 °F 52% 29.52 in 7.0 mi NNW 33.4 mph 49.5 mph 0.00 in Snow Light Snow
3:00 PM 33.1 °F 17.6 °F 16.0 °F 50% 29.52 in 1.5 mi NNW 38.0 mph 50.6 mph 0.00 in Snow Light Snow
3:07 PM 33.1 °F 18.0 °F 16.0 °F 50% 29.53 in 10.0 mi NNW 35.7 mph 50.6 mph 0.00 in   Scattered Clouds
3:53 PM 34.0 °F 21.3 °F 12.9 °F 42% 29.56 in 10.0 mi NW 25.3 mph 41.4 mph 0.00 in   Overcast
4:53 PM 34.0 °F 20.3 °F 10.9 °F 38% 29.62 in 10.0 mi NNW 29.9 mph 46.0 mph N/A   Overcast
5:53 PM 35.1 °F 23.8 °F 9.0 °F 34% 29.66 in 10.0 mi NW 20.7 mph 34.5 mph N/A   Overcast
6:53 PM 33.1 °F 19.8 °F 8.1 °F 35% 29.73 in 10.0 mi NW 26.5 mph 44.9 mph N/A   Clear
7:53 PM 30.9 °F 17.8 °F 6.1 °F 35% 29.80 in 10.0 mi NW 23.0 mph 40.3 mph N/A   Partly Cloudy
8:53 PM 30.9 °F 18.4 °F 5.0 °F 33% 29.86 in 10.0 mi NW 20.7 mph 32.2 mph N/A   Clear
9:53 PM 30.0 °F 16.0 °F 1.0 °F 29% 29.90 in 10.0 mi NW 25.3 mph 46.0 mph N/A   Clear
10:53 PM 28.9 °F 14.5 °F 1.9 °F 32% 29.94 in 9.0 mi NW 25.3 mph 41.4 mph N/A   Clear
11:53 PM 28.0 °F 12.8 °F 1.0 °F 31% 29.98 in 10.0 mi NNW 27.6 mph 40.3 mph N/A   Clear